Theta_e
337 338 334 334 335 333 334 332 331 333 333 333 333 331 329 329 331 332 331 343 350 352 355 355 354 353 353 352 352 352 350 348 349 349 348 348 347 347 347 347 345 344 343
337 334 335 334 333 333 333 333 331 331 331 331 332 331 331 330 331 332 332 331 350 349 350 353 354 354 353 353 352 352 350 349 348 348 348 347 347 346 346 346 346 344 343
336 338 336 337 336 336 336 335 334 332 330 333 332 333 334 334 334 333 333 331 340 349 348 350 353 354 355 353 353 352 350 348 347 348 347 346 346 346 346 346 346 345 343
338 336 340 339 339 340 339 337 337 335 334 333 330 330 330 331 332 333 334 332 332 336 347 349 350 352 354 355 353 353 352 349 347 346 346 346 346 346 346 346 346 345 344
345 338 336 340 341 338 337 337 336 334 332 330 331 331 331 332 333 336 334 334 333 334 334 342 348 348 350 353 354 353 352 350 347 346 346 346 346 345 346 346 345 345 344
345 346 344 340 340 339 338 336 333 335 334 332 334 333 332 333 334 335 337 338 336 335 334 334 337 343 347 349 351 352 351 350 348 347 345 344 344 344 343 346 345 345 345
345 345 346 343 340 338 337 336 332 332 332 332 330 329 330 333 334 336 338 336 337 338 336 336 335 337 338 346 347 348 350 351 349 349 344 342 342 343 343 344 345 345 344
347 345 343 342 342 340 337 335 333 330 332 334 327 327 324 328 329 335 336 339 339 338 339 339 338 338 337 337 340 345 348 348 348 346 343 341 341 342 343 342 344 344 344
345 348 346 345 341 341 339 334 333 332 329 333 334 329 324 321 327 330 335 339 339 338 339 339 340 340 339 337 340 343 345 344 347 347 343 341 341 343 343 342 341 342 344
340 340 342 345 344 341 339 335 334 335 335 332 334 336 333 333 326 322 330 333 337 339 339 338 338 337 338 338 341 341 339 341 346 347 345 343 343 343 342 342 341 341 342
338 339 340 342 342 340 340 336 335 335 337 335 335 335 333 328 325 321 317 321 329 339 340 337 337 336 339 338 337 338 336 336 338 340 341 342 342 343 342 342 342 341 341
334 337 341 340 341 339 337 338 338 336 336 340 340 336 329 322 321 322 319 321 326 333 335 336 336 336 337 338 341 338 333 331 331 332 333 335 339 341 341 341 342 342 341
330 334 335 340 340 340 339 338 338 338 339 336 333 330 328 325 325 324 323 325 328 329 329 332 335 336 336 336 336 335 334 330 328 327 328 329 332 336 337 338 340 341 341
330 331 332 333 337 339 339 338 337 338 330 328 326 325 324 324 326 328 328 328 325 322 323 326 329 332 332 332 332 332 331 327 327 324 324 325 327 329 331 333 334 335 336
328 332 331 331 332 335 332 331 331 331 331 329 329 328 327 327 325 327 331 332 328 323 320 324 325 328 329 329 330 329 329 329 328 324 322 323 323 325 326 327 327 329 330
321 323 330 332 334 336 334 331 329 329 329 329 329 328 329 332 335 334 335 336 332 328 320 323 324 327 328 330 331 329 330 328 326 324 323 322 320 321 322 323 324 325 327
321 323 327 328 332 333 335 334 334 333 331 331 333 331 330 330 338 341 339 334 329 324 321 321 325 325 324 326 327 327 329 327 324 322 323 321 319 318 320 320 321 321 323
320 322 323 326 330 332 333 335 335 337 334 333 334 336 336 341 339 339 336 331 328 326 322 319 321 322 322 323 324 323 328 329 323 320 318 316 315 313 315 316 315 315 315
318 319 323 325 327 328 330 333 337 338 336 337 337 339 343 343 342 338 333 330 327 328 324 322 323 321 321 321 319 320 322 320 322 319 317 315 314 315 315 315 315 315 312
317 317 319 321 323 325 327 330 335 338 342 342 344 345 344 342 341 337 333 329 327 325 323 323 321 319 318 318 317 316 317 319 317 321 319 317 317 317 315 315 318 316 312
320 320 320 320 320 322 324 325 331 337 338 342 344 345 344 339 333 333 334 328 327 323 322 319 317 316 315 316 314 315 315 317 317 318 318 319 320 319 319 316 321 319 312
318 320 320 320 320 324 315 312 318 330 338 341 340 340 342 328 327 319 322 321 327 324 320 318 316 316 314 315 314 316 316 319 316 324 322 318 321 321 320 322 315 310 308
313 316 317 318 318 319 310 308 311 323 330 339 339 337 335 338 329 331 317 316 316 314 319 321 318 318 316 318 317 315 315 314 313 316 317 317 322 321 322 322 310 307 306
310 311 314 316 318 320 309 306 309 321 326 336 337 336 333 328 329 328 325 324 324 323 322 324 322 321 322 320 321 320 318 317 316 318 317 312 317 318 323 323 309 307 305
309 311 314 316 317 321 310 307 310 322 327 334 336 333 330 328 310 308 325 322 320 319 309 308 313 311 309 308 316 321 317 316 313 315 318 314 316 313 320 320 318 306 304
309 312 314 316 315 320 311 306 309 322 327 330 331 329 314 325 304 306 324 322 318 318 318 318 317 314 311 310 308 321 319 315 313 312 317 315 312 314 312 316 320 316 312
Wind_Speed
7 6 5 4 4 3 3 3 4 5 5 6 7 7 7 7 8 5 4 12 12 14 15 16 16 15 15 15 15 15 14 13 13 13 13 13 13 13 14 14 14 14 15
5 5 4 5 4 4 4 4 5 5 6 5 6 6 8 6 6 6 5 5 12 14 14 15 16 16 17 16 15 15 14 14 15 14 14 14 15 14 14 14 15 15 17
6 6 5 5 5 5 6 4 5 4 5 4 7 5 6 8 6 7 7 5 5 14 15 16 16 16 16 17 16 15 16 15 16 15 15 15 15 16 16 16 16 16 17
9 7 6 6 5 4 4 4 4 4 5 3 3 5 4 5 6 6 6 6 5 5 10 16 17 16 16 17 17 15 16 15 16 15 15 15 16 16 16 16 16 15 17
10 7 6 5 6 4 4 4 4 3 3 3 4 5 4 4 6 6 7 9 7 6 5 9 17 16 16 17 18 17 17 16 16 17 16 16 16 16 16 17 16 16 16
11 10 6 6 5 4 3 3 3 3 3 2 3 4 5 5 5 6 9 8 7 6 6 7 5 7 15 16 17 17 18 18 16 17 16 16 16 16 17 17 17 17 16
13 9 7 5 4 5 5 5 2 4 3 1 3 4 4 7 7 7 5 4 7 8 6 5 5 5 5 14 15 15 18 19 17 17 16 16 16 16 17 18 17 17 16
8 12 8 6 6 4 5 5 4 1 2 3 2 1 4 3 2 2 0 3 9 5 6 6 6 7 6 4 7 13 18 19 18 18 17 16 16 17 17 17 17 17 16
9 8 11 9 7 6 6 5 5 7 4 3 6 4 2 3 5 1 4 3 10 5 5 5 7 7 7 6 7 8 18 18 16 17 16 16 17 17 17 17 17 16 16
10 10 7 8 7 7 6 5 4 5 4 5 2 6 3 4 0 7 3 5 12 12 8 5 5 6 6 5 9 8 9 14 14 14 16 17 18 18 18 17 16 15 16
6 7 9 9 9 9 7 6 6 6 5 5 5 4 0 1 3 3 3 6 7 11 7 5 5 5 6 5 5 7 12 13 12 12 12 15 17 18 17 17 16 16 16
3 5 7 8 8 5 9 9 10 10 11 9 7 6 6 5 4 2 1 5 8 11 5 4 5 6 5 5 7 7 12 12 11 10 10 10 11 14 15 15 16 16 18
3 6 6 6 7 10 7 7 9 10 10 10 7 5 4 6 3 4 4 8 5 4 4 4 5 4 4 4 3 3 5 6 7 6 7 8 7 8 11 13 15 15 15
4 6 7 8 5 3 6 10 7 8 6 8 7 6 5 5 4 5 4 4 7 5 2 6 2 3 3 3 3 2 2 5 6 7 6 6 6 6 6 9 11 11 11
5 6 7 8 7 9 7 7 7 10 11 12 11 11 7 6 5 5 6 7 9 8 5 4 4 2 2 4 4 3 3 3 6 7 6 6 7 6 6 7 7 8 8
6 7 6 8 7 9 10 11 10 11 12 8 10 12 8 6 7 8 8 9 9 8 4 4 3 1 2 1 2 3 3 2 4 5 6 7 7 7 7 6 6 7 7
7 7 8 7 8 9 10 10 11 10 9 10 13 10 11 6 5 5 6 6 6 5 5 2 1 2 1 3 1 2 2 1 1 3 4 4 6 6 6 6 6 6 7
7 7 7 6 6 7 6 8 9 10 12 15 15 10 12 5 7 7 8 6 4 5 4 5 2 2 2 1 2 1 2 3 1 2 1 1 2 2 2 3 3 3 4
8 7 6 6 7 7 7 7 10 13 13 16 12 11 13 10 10 6 5 5 4 3 3 3 3 0 2 1 1 1 2 2 2 3 4 4 4 4 3 3 4 4 5
8 7 6 6 7 7 8 10 12 14 13 15 12 13 14 11 11 9 7 6 5 4 3 2 3 2 2 1 1 2 1 1 1 2 5 4 4 5 2 2 3 4 5
9 8 7 7 7 7 8 11 11 11 14 12 13 15 12 11 13 10 6 6 6 4 3 3 3 2 2 2 4 3 2 2 1 2 2 1 2 2 2 1 2 3 5
8 10 8 7 7 7 12 15 12 11 12 12 14 10 9 10 11 13 13 12 12 9 6 4 3 4 4 4 3 3 4 3 2 3 3 1 1 2 1 2 2 2 5
7 11 12 8 8 8 12 15 17 10 11 13 13 10 6 7 9 8 7 10 10 11 8 7 7 6 6 7 6 4 3 3 3 2 2 3 1 2 1 1 3 4 4
8 9 10 10 10 9 12 15 17 12 10 14 11 9 10 9 8 11 9 7 6 6 7 4 7 7 6 7 7 6 6 4 1 0 2 2 2 2 1 1 4 5 5
11 10 8 9 9 10 12 15 15 7 10 12 9 9 11 10 11 13 11 9 6 2 2 3 6 10 10 11 8 5 4 4 1 2 2 3 2 1 2 2 3 6 7
13 10 9 8 9 10 12 16 12 7 8 5 6 7 13 14 18 14 11 10 8 6 5 4 3 5 6 5 9 4 5 4 2 0 4 3 3 2 1 2 2 3 3
Wind_Direction
192 188 200 192 210 198 198 206 219 238 234 227 231 225 233 236 242 241 247 264 256 216 215 219 223 221 221 217 214 214 206 210 212 216 218 217 215 214 212 210 207 202 193
192 195 191 208 205 188 204 198 206 228 244 231 243 228 244 242 237 246 246 242 239 223 225 228 226 224 221 223 218 222 217 208 213 212 216 218 215 216 217 218 217 211 203
199 191 197 207 201 190 204 205 231 228 245 242 251 244 244 251 245 252 254 240 218 227 228 227 232 231 226 226 222 224 227 217 215 211 214 218 218 216 223 225 227 217 212
197 213 211 213 197 187 196 199 221 236 243 224 255 259 265 275 275 258 267 258 223 211 229 232 233 234 233 227 233 226 228 225 220 213 213 215 222 218 219 223 224 219 214
198 192 227 201 205 194 198 200 224 208 243 255 259 269 279 291 279 295 271 262 238 213 204 234 230 235 237 232 227 226 231 225 221 216 214 214 218 224 214 223 223 224 220
200 195 205 205 206 182 209 226 227 231 237 254 292 299 278 261 259 248 260 257 260 225 211 221 224 229 234 237 237 229 233 232 224 219 214 215 216 223 219 220 223 223 223
183 195 215 200 183 199 185 214 193 222 274 162 334 314 270 242 253 251 273 270 260 254 216 225 228 225 229 227 234 232 238 234 228 221 211 215 218 220 222 218 221 222 224
193 193 195 204 183 219 178 213 185 196 241 195 212 275 298 316 336 323 321 306 273 261 231 231 237 228 222 211 218 225 239 238 238 231 219 215 218 221 220 221 218 218 221
181 199 204 205 171 198 217 182 177 198 226 240 212 195 279 282 328 156 27 350 306 280 266 242 235 236 225 205 211 229 236 241 241 238 223 216 219 219 221 218 222 214 218
181 165 215 218 174 208 212 196 185 220 185 217 243 243 237 138 266 326 71 321 325 280 258 262 245 236 215 200 209 208 244 232 235 241 232 224 224 228 220 216 217 215 215
206 157 187 214 210 188 198 182 193 207 213 219 186 216 338 164 174 150 290 296 306 284 261 247 250 237 217 213 208 212 231 237 234 237 241 238 232 233 228 215 216 214 218
313 305 205 205 186 194 187 205 209 204 223 228 198 191 168 188 202 173 337 272 248 278 264 239 231 235 226 225 221 200 232 247 247 240 249 252 234 231 222 216 220 219 224
254 254 279 226 206 184 199 206 224 237 232 220 200 184 208 220 176 158 172 263 277 271 283 260 236 231 230 223 233 199 259 257 237 238 247 241 240 232 225 217 221 220 225
234 239 234 243 260 222 187 197 189 222 234 245 246 233 223 205 204 173 196 230 279 275 287 252 277 212 193 195 132 253 236 271 257 249 251 257 249 240 220 227 219 221 225
237 242 240 241 245 245 197 185 209 220 229 235 236 245 213 199 199 192 198 216 234 266 261 265 250 13 170 153 183 194 231 270 272 257 242 241 244 236 229 220 224 215 220
230 231 216 228 226 221 223 210 223 230 233 249 253 241 221 215 198 193 203 218 220 239 240 213 235 161 153 162 183 198 199 208 272 253 231 227 232 235 231 221 212 201 202
231 227 221 215 217 217 211 209 219 232 236 244 252 242 248 230 226 191 205 204 205 179 195 262 136 301 131 163 144 180 164 149 257 296 245 228 228 227 216 207 203 207 214
240 239 239 229 232 245 236 232 236 236 236 245 243 240 251 231 229 211 208 200 186 169 167 181 154 257 225 171 170 175 66 57 24 17 17 301 109 151 204 204 199 214 228
234 232 227 228 228 238 247 252 258 257 242 250 244 240 243 234 230 217 189 194 192 169 172 146 156 134 244 141 179 35 103 78 49 92 82 70 94 100 125 165 184 195 204
249 248 246 236 239 249 259 266 258 257 243 243 243 238 232 222 217 208 194 188 169 162 157 153 143 192 145 224 172 162 100 106 159 78 50 82 96 83 85 150 208 199 204
264 243 234 235 235 242 253 254 252 250 256 251 242 238 231 223 207 195 172 165 162 172 160 178 173 131 158 183 205 183 141 154 203 159 160 173 83 55 32 20 283 244 213
276 269 257 238 240 248 258 253 249 257 254 243 252 240 226 217 215 180 179 162 171 171 169 170 153 171 204 205 171 165 136 153 218 215 164 161 155 136 167 268 254 200 188
270 268 263 245 249 240 250 256 259 255 252 242 234 226 205 205 192 170 192 176 174 182 183 167 164 190 181 199 151 157 164 151 202 241 117 164 160 157 181 210 189 172 171
259 261 258 258 258 261 247 254 258 261 250 246 227 209 196 182 166 156 154 155 154 174 173 173 182 194 202 173 169 165 165 147 62 60 135 167 170 198 168 188 183 180 174
254 253 247 251 254 263 250 256 259 248 250 245 217 170 177 163 162 151 144 140 135 148 65 97 199 188 176 160 147 122 150 130 194 220 202 124 191 188 185 205 187 187 188
240 240 243 230 246 259 258 256 251 235 248 212 192 172 166 156 162 161 149 149 150 202 151 131 113 78 116 137 153 153 153 150 145 129 217 143 162 157 295 271 187 173 201